This demonstration page uses our WeatherBlox Daily Observations layout. Learn more.

Left ArrowRight Arrow

Hourly Observations for August 14, 2020

Temp ( °F °C ) Dew Point ( °F °C ) Humidity (%) Winds ( mph kmh ) Pressure ( in mb ) Visibility ( mi km ) Precip ( " mm )
12:53 am 00:53 Clear 72 22.2 66 18.9 82 82 S 8 13 29.92 1013 10 16 0.00 0.00
1:53 am 01:53 Clear 72 22.2 66 18.9 82 82 S 9 15 29.92 1013 10 16 0.00 0.00
2:53 am 02:53 Clear 70 21.1 66 18.9 87 87 S 5 7 29.91 1013 10 16 0.00 0.00
3:53 am 03:53 Clear 70 21.1 66 18.9 87 87 S 8 13 29.90 1013 10 16 0.00 0.00
4:53 am 04:53 Clear 69 20.6 66 18.9 90 90 S 6 9 29.89 1012 10 16 0.00 0.00
5:53 am 05:53 Clear 69 20.6 66 18.9 90 90 SSE 8 13 29.88 1012 10 16 0.00 0.00
6:53 am 06:53 Sunny 68 20 66 18.9 93 93 S 6 9 29.89 1012 10 16 0.00 0.00
7:53 am 07:53 Sunny 69 20.6 67 19.4 93 93 S 7 11 29.91 1013 10 16 0.00 0.00
8:53 am 08:53 Sunny 73 22.8 68 20 84 84 S 9 15 29.91 1013 10 16 0.00 0.00
9:53 am 09:53 Sunny 78 25.6 71 21.7 79 79 S 8 13 29.91 1013 10 16 0.00 0.00
10:53 am 10:53 Sunny 81 27.2 72 22.2 74 74 SSW 10 17 29.91 1013 10 16 0.00 0.00
11:53 am 11:53 Mostly Cloudy 84 28.9 72 22.2 67 67 SSW 9 15 29.92 1013 10 16 0.00 0.00
12:31 pm 12:31 Partly Cloudy 86 30 72 22.2 63 63 SSW 9 15 29.86 1011 10 16 0.00 0.00
12:53 pm 12:53 Mostly Sunny 84 28.9 72 22.2 67 67 SSW 10 17 29.92 1013 10 16 0.00 0.00
1:53 pm 13:53 Sunny 88 31.1 71 21.7 57 57 S 13 20 29.89 1012 10 16 0.00 0.00
2:53 pm 14:53 Partly Cloudy 89 31.7 71 21.7 55 55 SSW 5 7 29.91 1013 10 16 0.00 0.00
3:53 pm 15:53 Partly Cloudy 91 32.8 72 22.2 54 54 S 8 13 29.89 1012 10 16 0.00 0.00
4:53 pm 16:53 Mostly Cloudy 89 31.7 72 22.2 57 57 SSW 13 20 29.87 1011 10 16 0.00 0.00
5:28 pm 17:28 Mostly Cloudy 85 29.4 71 21.7 63 63 N 15 24 29.83 1010 10 16 0.00 0.00
5:53 pm 17:53 Cloudy 83 28.3 70 21.1 65 65 N 16 26 29.91 1013 10 16 0.00 0.00
6:53 pm 18:53 Mostly Cloudy 82 27.8 70 21.1 67 67 NE 15 24 29.93 1014 10 16 0.00 0.00
7:53 pm 19:53 Sunny 78 25.6 68 20 71 71 ESE 8 13 29.95 1014 10 16 0.00 0.00
8:53 pm 20:53 Clear 74 23.3 65 18.3 74 74 Calm 29.96 1014 10 16 0.00 0.00
9:53 pm 21:53 Clear 72 22.2 66 18.9 82 82 NNW 5 7 29.97 1015 10 16 0.00 0.00
10:53 pm 22:53 Clear 71 21.7 66 18.9 84 84 undefined N/A 29.98 1015 10 16 0.00 0.00
11:53 pm 23:53 Partly Cloudy 70 21.1 65 18.3 84 84 NNE 7 11 30.00 1016 10 16 0.00 0.00

Powered by AerisWeather